Location: Dana
(41.8364°N, 106.7042°W)
Time: 19:57:01
(UTC+00:00)

Injun/Solrad 3 - Pass Details

Date: 19 May 2026
Orbit: 867 x 989 km, 66.8° (Epoch: 6 June)

Event Time Altitude Azimuth Distance (km) Brightness Sun altitude
Rises 23:09:21 0° 251° (WSW) 3,537 11.9 34.2°
Reaches altitude 10° 23:12:23 10° 266° (W) 2,620 11.7 33.6°
Maximum altitude 23:17:10 23° 318° (NW) 1,871 10.3 32.7°
Drops below altitude 10° 23:22:05 10° 10° (N) 2,696 10.3 31.8°
Sets 23:25:16 0° 24° (NNE) 3,665 10.8 31.2°
